1506726000.45,11239,16.38,74350.5,-3.47,-39.29,-39.41,0,*56
1506726001.66,11240,16.38,74350.8,-3.49,-39.47,-39.85,0,*56
1506726002.89,11241,16.38,74350.5,-3.49,-39.35,-39.71,0,*59
1506726004.1,11242,16.38,74348.8,-3.49,-39.35,-39.65,0,*5F
1506726005.32,11243,16.38,74350.5,-3.49,-39.47,-39.65,0,*5B
1506726006.53,11244,16.38,74350.3,-3.49,-39.47,-39.65,0,*5C
1506726007.79,11245,16.38,74350.8,-3.51,-39.41,-39.65,0,*52
1506726009.0,11246,16.38,74350.0,-3.49,-39.35,-39.65,0,*5B
1506726010.27,11247,16.38,74348.5,-3.51,-39.41,-39.65,0,*50
1506726011.55,11248,16.38,74350.3,-3.51,-39.23,-39.41,0,*5D
1506726012.78,11249,16.38,74350.5,-3.51,-39.35,-39.65,0,*5D
1506726014.04,11250,16.38,74350.5,-3.51,-39.23,-39.65,0,*52
1506726015.33,11251,16.38,74350.8,-3.51,-39.41,-39.79,0,*5A
1506726016.59,11252,16.38,74348.3,-3.51,-39.41,-39.65,0,*54
1506726017.83,11253,16.38,74346.8,-3.51,-39.35,-39.65,0,*56
1506726019.08,11254,16.38,74350.0,-3.53,-39.29,-39.53,0,*5B
1506726020.3,11255,16.38,74350.8,-3.51,-38.97,-39.35,0,*5C
1506726021.51,11256,16.38,74348.5,-3.53,-39.09,-39.47,0,*5E
1506726022.76,11257,16.38,74350.5,-3.53,-39.41,-39.53,0,*56
1506726024.05,11258,16.38,74350.3,-3.51,-39.15,-39.53,0,*5A
1506726025.27,11259,16.38,74346.0,-3.53,-39.29,-39.47,0,*53
1506726026.53,11260,16.38,74346.8,-3.53,-39.29,-39.53,0,*5C
1506726027.75,11261,16.38,74350.0,-3.53,-39.23,-39.47,0,*52
1506726029.01,11262,16.38,74348.8,-3.53,-39.23,-39.53,0,*54
1506726030.24,11263,16.38,74346.5,-3.53,-39.41,-39.47,0,*54
1506726031.48,11264,16.38,74350.3,-3.55,-39.29,-39.47,0,*5B
1506726032.71,11265,16.38,74350.3,-3.53,-39.23,-39.47,0,*56
1506726033.94,11266,16.38,74346.5,-3.55,-39.09,-39.47,0,*5B
1506726035.15,11267,16.38,74350.8,-3.57,-39.09,-39.47,0,*58
1506726036.36,11268,16.38,74350.0,-3.57,-39.09,-39.47,0,*57
1506726037.63,11269,16.38,74350.8,-3.55,-39.29,-39.53,0,*53
1506726038.88,11270,16.38,74350.5,-3.57,-39.29,-39.53,0,*59
1506726040.12,11271,16.38,74344.8,-3.57,-39.35,-39.59,0,*5F
1506726041.33,11272,16.38,74352.3,-3.57,-39.47,-39.91,0,*5D
1506726042.57,11273,16.38,74350.3,-3.57,-39.47,-39.79,0,*5A
1506726043.81,11274,16.38,74348.3,-3.57,-39.47,-39.59,0,*5F
1506726045.02,11275,16.38,74346.3,-3.57,-39.09,-39.47,0,*5B
1506726046.25,11276,16.38,74346.3,-3.57,-39.29,-39.47,0,*5A
1506726047.51,11277,16.38,74350.8,-3.59,-39.09,-39.15,0,*50
1506726048.77,11278,16.38,74350.5,-3.59,-39.09,-39.29,0,*50
1506726050.02,11279,16.38,74348.8,-3.59,-39.29,-39.47,0,*5B
1506726051.23,11280,16.38,74350.0,-3.57,-39.09,-39.47,0,*51
1506726052.49,11281,16.38,74348.0,-3.59,-39.15,-39.35,0,*56
1506726053.77,11282,16.38,74350.8,-3.59,-38.91,-39.29,0,*55
1506726055.05,11283,16.38,74348.3,-3.59,-38.79,-39.15,0,*5D
1506726056.29,11284,16.38,74350.3,-3.59,-39.09,-39.47,0,*5B
1506726057.54,11285,16.38,74350.8,-3.59,-39.15,-39.47,0,*57
1506726058.79,11286,16.38,74350.5,-3.59,-39.29,-39.47,0,*5B
1506726060.03,11287,16.38,74350.8,-3.61,-39.35,-39.59,0,*53
1506726061.31,11288,16.38,74348.8,-3.59,-39.29,-39.53,0,*50
1506726062.56,11289,16.38,74350.0,-3.61,-38.91,-39.29,0,*55
1506726063.81,11290,16.38,74352.5,-3.59,-38.97,-39.29,0,*50
1506726065.07,11291,16.38,74348.0,-3.61,-39.03,-39.23,0,*5C
1506726066.3,11292,16.38,74352.5,-3.59,-39.09,-39.35,0,*59
1506726067.53,11293,16.38,74346.0,-3.61,-39.35,-39.53,0,*5C
1506726068.76,11294,16.38,74348.5,-3.59,-39.09,-39.47,0,*5A
1506726070.02,11295,16.38,74348.0,-3.61,-39.15,-39.41,0,*5B
1506726071.28,11296,16.38,74350.0,-3.61,-39.41,-39.53,0,*5A
1506726072.53,11297,16.38,74350.0,-3.61,-39.03,-39.53,0,*5D
1506726073.8,11298,16.38,74350.3,-3.61,-39.15,-39.41,0,*56
1506726075.05,11299,16.38,74350.8,-3.61,-39.23,-39.53,0,*51
1506726076.31,11300,16.38,74350.5,-3.61,-39.41,-39.59,0,*5E
1506726077.57,11301,16.38,74348.0,-3.61,-39.23,-39.59,0,*5B
1506726078.83,11302,16.38,74348.5,-3.61,-39.23,-39.53,0,*52
1506726080.08,11303,16.38,74350.0,-3.61,-39.23,-39.53,0,*53
1506726081.33,11304,16.38,74348.0,-3.67,-39.29,-39.47,0,*5D
1506726082.6,11305,16.38,74352.3,-3.65,-39.23,-39.59,0,*5B
1506726083.86,11306,16.38,74348.5,-3.65,-39.03,-39.29,0,*5D
1506726085.14,11307,16.38,74348.8,-3.67,-39.03,-39.29,0,*5E
1506726086.38,11308,16.38,74346.3,-3.67,-38.73,-39.09,0,*55
1506726087.64,11309,16.38,74348.3,-3.67,-39.09,-39.41,0,*54
1506726088.89,11310,16.38,74344.8,-3.65,-39.23,-39.41,0,*56
1506726090.13,11311,16.38,74350.0,-3.67,-39.09,-39.47,0,*5B
1506726091.37,11312,16.38,74350.8,-3.67,-38.85,-39.09,0,*57
1506726092.61,11313,16.38,74350.3,-3.65,-38.85,-39.03,0,*5E
1506726093.89,11314,16.38,74350.5,-3.67,-38.91,-39.29,0,*56
1506726095.15,11315,16.38,74348.3,-3.65,-39.29,-39.59,0,*50
1506726096.41,11316,16.38,74354.8,-3.65,-38.91,-39.29,0,*56
1506726097.69,11317,16.38,74348.0,-3.67,-39.03,-39.23,0,*55
1506726098.93,11318,16.38,74348.8,-3.67,-39.09,-39.47,0,*52
1506726100.19,11319,16.38,74350.0,-3.67,-39.09,-39.29,0,*5B
1506726101.45,11320,16.38,74350.5,-3.67,-39.03,-39.47,0,*53
1506726102.7,11321,16.38,74350.0,-3.67,-39.29,-39.47,0,*5A
1506726103.91,11322,16.38,74350.0,-3.69,-39.35,-39.65,0,*5A
1506726105.15,11323,16.38,74352.3,-3.69,-39.15,-39.47,0,*59
1506726106.39,11324,16.38,74350.5,-3.69,-39.15,-39.65,0,*5E
1506726107.62,11325,16.38,74348.0,-3.69,-38.97,-39.29,0,*5C
1506726108.84,11326,16.38,74348.8,-3.71,-38.97,-39.47,0,*5E
1506726110.05,11327,16.38,74348.3,-3.69,-39.09,-39.47,0,*50
1506726111.28,11328,16.38,74350.0,-3.69,-39.15,-39.47,0,*52
1506726112.54,11329,16.38,74350.3,-3.71,-38.91,-39.09,0,*5D
1506726113.8,11330,16.38,74344.0,-3.71,-39.09,-39.29,0,*57
1506726115.03,11331,16.38,74348.8,-3.69,-38.97,-39.15,0,*56
1506726116.28,11332,16.38,74348.0,-3.71,-38.97,-39.15,0,*5C
1506726117.52,11333,16.38,74350.8,-3.69,-38.91,-39.09,0,*5F
1506726118.77,11334,16.38,74350.3,-3.71,-38.79,-38.97,0,*51
1506726120.02,11335,16.38,74348.3,-3.71,-38.97,-39.29,0,*54
1506726121.28,11336,16.38,74350.8,-3.71,-38.79,-39.09,0,*55
1506726122.54,11337,16.38,74350.8,-3.69,-38.91,-39.29,0,*59
1506726123.79,11338,16.38,74350.8,-3.71,-38.97,-39.29,0,*59
1506726125.05,11339,16.38,74348.5,-3.71,-39.09,-39.29,0,*5E
1506726126.3,11340,16.38,74346.3,-3.71,-38.91,-39.09,0,*52
1506726127.54,11341,16.38,74346.5,-3.69,-38.97,-39.15,0,*51
1506726128.76,11342,16.38,74348.8,-3.69,-38.97,-39.29,0,*5D
1506726130.02,11343,16.38,74352.0,-3.71,-38.79,-39.09,0,*57
1506726131.25,11344,16.38,74348.5,-3.71,-39.09,-39.47,0,*5C
1506726132.46,11345,16.38,74346.5,-3.69,-39.09,-39.47,0,*54
1506726133.72,11346,16.38,74348.5,-3.71,-39.09,-39.53,0,*5B
1506726134.96,11347,16.38,74348.5,-3.71,-38.97,-39.29,0,*51
1506726136.19,11348,16.38,74350.3,-3.71,-38.97,-39.09,0,*5C
1506726137.42,11349,16.38,74352.0,-3.69,-38.97,-39.29,0,*56
1506726138.67,11350,16.38,74354.0,-3.71,-38.97,-39.29,0,*57
1506726139.92,11351,16.38,74348.0,-3.71,-39.15,-39.47,0,*55
1506726141.21,11352,16.38,74348.0,-3.73,-39.03,-39.53,0,*56
1506726142.49,11353,16.38,74348.8,-3.73,-39.03,-39.23,0,*50
1506726143.74,11354,16.38,74354.5,-3.73,-39.03,-39.35,0,*50
1506726145.0,11355,16.38,74350.5,-3.75,-39.03,-39.23,0,*50
1506726146.25,11356,16.38,74352.3,-3.73,-39.03,-39.35,0,*52
1506726147.51,11357,16.38,74348.0,-3.73,-39.15,-39.35,0,*54
1506726148.73,11358,16.38,74352.3,-3.75,-39.03,-39.35,0,*5A
1506726149.99,11359,16.38,74350.5,-3.75,-39.03,-39.23,0,*5C
1506726151.25,11360,16.38,74348.0,-3.75,-39.15,-39.53,0,*56
1506726152.51,11361,16.38,74348.3,-3.75,-39.15,-39.59,0,*5D
1506726153.79,11362,16.38,74348.0,-3.73,-39.03,-39.23,0,*52
1506726155.05,11363,16.38,74348.8,-3.75,-39.15,-39.41,0,*56
1506726156.31,11364,16.38,74350.3,-3.75,-39.03,-39.23,0,*52
1506726157.56,11365,16.38,74352.5,-3.75,-39.03,-39.41,0,*57
1506726158.81,11366,16.38,74350.0,-3.75,-39.23,-39.53,0,*55
1506726160.07,11367,16.38,74346.3,-3.75,-39.15,-39.41,0,*52
1506726161.32,11368,16.38,74350.0,-3.75,-39.03,-39.41,0,*5A
1506726162.57,11369,16.38,74348.8,-3.77,-39.23,-39.47,0,*5D
1506726163.83,11370,16.38,74348.5,-3.77,-39.09,-39.23,0,*5F
1506726165.08,11371,16.38,74348.8,-3.77,-39.09,-39.41,0,*5A
1506726166.36,11372,16.38,74352.5,-3.77,-39.03,-39.29,0,*5D
1506726167.59,11373,16.38,74348.0,-3.79,-39.09,-39.41,0,*56
1506726168.84,11374,16.38,74350.8,-3.77,-39.23,-39.47,0,*51
1506726170.1,11375,16.38,74350.0,-3.79,-39.29,-39.59,0,*5B
1506726171.35,11376,16.38,74348.8,-3.79,-39.29,-39.41,0,*51
1506726172.63,11377,16.38,74350.8,-3.77,-39.23,-39.59,0,*5D
1506726173.84,11378,16.38,74350.0,-3.79,-38.85,-39.09,0,*54
1506726175.12,11379,16.38,74350.3,-3.77,-39.23,-39.41,0,*5A
1506726176.34,11380,16.38,74350.5,-3.79,-39.23,-39.47,0,*54
1506726177.6,11381,16.38,74350.5,-3.79,-39.29,-39.59,0,*50
1506726178.85,11382,16.38,74346.3,-3.77,-39.23,-39.47,0,*58
1506726180.11,11383,16.38,74348.5,-3.79,-39.23,-39.59,0,*58
1506726181.36,11384,16.38,74348.0,-3.79,-39.41,-39.79,0,*59
1506726182.63,11385,16.38,74350.5,-3.81,-39.35,-39.71,0,*54
1506726183.86,11386,16.38,74350.3,-3.81,-39.35,-39.65,0,*52
1506726185.09,11387,16.38,74348.8,-3.81,-39.09,-39.47,0,*5C
1506726186.38,11388,16.38,74354.5,-3.81,-39.15,-39.53,0,*5B
1506726187.63,11389,16.38,74346.0,-3.81,-39.29,-39.47,0,*50
1506726188.89,11390,16.38,74348.3,-3.81,-39.15,-39.35,0,*52
1506726190.15,11391,16.38,74346.8,-3.81,-39.09,-39.29,0,*53
1506726191.38,11392,16.38,74350.5,-3.81,-39.35,-39.65,0,*57
1506726192.63,11393,16.38,74350.3,-3.83,-39.29,-39.53,0,*5C
1506726193.86,11394,16.38,74348.8,-3.83,-39.15,-39.35,0,*54
1506726195.09,11395,16.38,74350.3,-3.83,-38.97,-39.15,0,*5C
1506726196.33,11396,16.38,74350.8,-3.83,-38.91,-39.09,0,*54
1506726197.56,11397,16.38,74344.8,-3.83,-38.91,-39.09,0,*55
1506726198.79,11398,16.38,74348.8,-3.83,-39.15,-39.47,0,*5D
1506726200.04,11399,16.38,74348.3,-3.87,-39.23,-39.41,0,*5B
1506726201.27,11400,16.38,74348.0,-3.87,-39.35,-39.41,0,*5B
1506726202.5,11401,16.38,74350.0,-3.83,-39.29,-39.65,0,*55
1506726203.73,11402,16.38,74348.3,-3.83,-39.29,-39.47,0,*56
1506726204.97,11403,16.38,74350.3,-3.83,-39.09,-39.15,0,*52
1506726206.2,11404,16.38,74348.3,-3.87,-38.91,-39.09,0,*5C
1506726207.43,11405,16.38,74348.0,-3.87,-38.79,-38.97,0,*5D
1506726208.7,11406,16.38,74350.3,-3.89,-38.85,-38.91,0,*55
1506726209.91,11407,16.38,74348.0,-3.87,-38.85,-38.85,0,*5F
1506726211.14,11408,16.38,74348.3,-3.87,-38.97,-39.15,0,*5B
1506726212.37,11409,16.38,74348.0,-3.87,-39.15,-39.35,0,*53
1506726213.62,11410,16.31,74344.3,-3.87,-39.03,-39.23,0,*5B
1506726214.85,11411,16.38,74348.5,-3.83,-38.91,-38.97,0,*5A
1506726216.08,11412,16.38,74346.5,-3.83,-38.79,-38.97,0,*5F
1506726217.32,11413,16.38,74348.3,-3.83,-38.55,-38.91,0,*56
1506726218.52,11414,16.31,74344.5,-3.83,-38.73,-38.97,0,*53
1506726219.75,11415,16.38,74348.8,-3.83,-39.09,-39.29,0,*5A
1506726220.98,11416,16.38,74348.3,-3.83,-38.97,-39.15,0,*50
1506726222.24,11417,16.38,74348.5,-3.83,-38.67,-38.79,0,*55
1506726223.47,11418,16.38,74350.8,-3.83,-38.73,-38.79,0,*5F
1506726224.69,11419,16.38,74348.3,-3.87,-38.97,-39.23,0,*5E
1506726225.94,11420,16.38,74348.8,-3.87,-39.03,-39.23,0,*58
1506726227.18,11421,16.38,74350.5,-3.87,-39.15,-39.35,0,*59
1506726228.43,11422,16.38,74350.3,-3.87,-39.03,-39.03,0,*58
1506726229.68,11423,16.38,74348.8,-3.87,-39.03,-39.23,0,*5B
1506726230.93,11424,16.38,74346.0,-3.87,-39.03,-39.23,0,*5C
1506726232.19,11425,16.38,74350.3,-3.87,-39.15,-39.41,0,*5E
1506726233.45,11426,16.38,74348.8,-3.87,-39.15,-39.53,0,*5E
1506726234.68,11427,16.38,74350.8,-3.87,-39.35,-39.53,0,*5D
1506726235.93,11428,16.38,74350.5,-3.89,-39.29,-39.47,0,*54
1506726237.21,11429,16.38,74350.5,-3.89,-39.23,-39.29,0,*57
1506726238.48,11430,16.38,74348.3,-3.89,-39.09,-39.23,0,*5D
1506726239.74,11431,16.38,74350.5,-3.89,-39.09,-39.29,0,*56
1506726240.99,11432,16.38,74348.5,-3.89,-38.85,-39.09,0,*52
1506726242.25,11433,16.38,74348.8,-3.89,-38.85,-38.91,0,*53
1506726243.48,11434,16.38,74346.8,-3.87,-38.97,-39.15,0,*54
1506726244.73,11435,16.38,74346.3,-3.87,-39.03,-39.23,0,*5C
1506726245.99,11436,16.31,74346.5,-3.89,-39.23,-39.47,0,*51
1506726247.24,11437,16.38,74346.0,-3.87,-39.23,-39.53,0,*5B
1506726248.47,11438,16.38,74346.3,-3.87,-39.15,-39.35,0,*51
1506726249.73,11439,16.38,74350.0,-3.89,-39.23,-39.47,0,*5E
1506726250.99,11440,16.38,74350.5,-3.91,-39.23,-39.59,0,*56
1506726252.22,11441,16.38,74348.0,-3.91,-38.91,-39.09,0,*5A
1506726253.47,11442,16.38,74344.3,-3.91,-39.23,-39.41,0,*5D
1506726254.7,11443,16.31,74342.5,-3.91,-39.23,-39.47,0,*5A
1506726255.95,11444,16.38,74348.3,-3.91,-39.23,-39.41,0,*5B
1506726257.18,11445,16.38,74350.0,-3.91,-39.23,-39.47,0,*5C
1506726258.44,11446,16.38,74348.3,-3.93,-39.29,-39.65,0,*57
1506726259.7,11447,16.38,74348.5,-3.93,-39.35,-39.71,0,*5E
1506726260.93,11448,16.38,74350.5,-3.93,-39.35,-39.65,0,*54
1506726262.17,11449,16.38,74348.3,-3.93,-39.35,-39.65,0,*55
1506726263.43,11450,16.38,74346.5,-3.93,-39.15,-39.35,0,*5A
1506726264.68,11451,16.38,74350.5,-3.93,-39.29,-39.47,0,*51
1506726265.94,11452,16.38,74344.8,-3.93,-39.15,-39.47,0,*5D
1506726267.21,11453,16.38,74350.3,-3.93,-39.29,-39.53,0,*56
1506726268.49,11454,16.38,74350.0,-3.93,-39.29,-39.53,0,*51
1506726269.74,11455,16.38,74348.0,-3.93,-39.35,-39.53,0,*5D
1506726270.97,11456,16.38,74348.0,-3.95,-39.29,-39.47,0,*50
1506726272.18,11457,16.38,74346.8,-3.95,-38.85,-38.97,0,*5A
1506726273.45,11458,16.38,74348.3,-3.95,-39.15,-39.15,0,*56
1506726274.67,11459,16.38,74346.8,-3.95,-38.97,-39.29,0,*53
1506726275.88,11460,16.38,74350.3,-3.95,-39.09,-39.35,0,*52
1506726277.14,11461,16.38,74348.8,-3.97,-39.35,-39.53,0,*5E
1506726278.39,11462,16.38,74344.8,-3.95,-39.29,-39.53,0,*52
1506726279.65,11463,16.38,74350.0,-3.97,-39.35,-39.53,0,*5C
1506726280.92,11464,16.38,74344.0,-3.97,-39.35,-39.59,0,*51
1506726282.15,11465,16.38,74350.5,-3.95,-39.29,-39.47,0,*50
1506726283.4,11466,16.38,74350.3,-3.97,-39.23,-39.35,0,*5E
1506726284.64,11467,16.38,74348.8,-3.99,-39.15,-39.35,0,*54
1506726285.9,11468,16.38,74346.0,-3.97,-39.23,-39.35,0,*50
1506726287.18,11469,16.31,74346.8,-3.97,-39.23,-39.53,0,*51
1506726288.44,11470,16.38,74346.8,-3.97,-39.23,-39.35,0,*59
1506726289.73,11471,16.38,74350.0,-3.97,-38.91,-39.03,0,*55
1506726291.02,11472,16.38,74348.3,-3.97,-39.03,-39.23,0,*5E
1506726292.3,11473,16.38,74346.8,-3.97,-39.03,-39.23,0,*5F
1506726293.53,11474,16.38,74350.0,-3.99,-38.97,-39.23,0,*5A
1506726294.79,11475,16.38,74348.3,-3.99,-39.03,-39.23,0,*57
1506726296.03,11476,16.38,74346.5,-3.99,-39.35,-39.53,0,*56
1506726297.27,11477,16.38,74348.5,-3.99,-39.35,-39.59,0,*5D
1506726298.52,11478,16.38,74348.3,-3.99,-39.23,-39.53,0,*5F
1506726299.81,11479,16.38,74348.0,-4.01,-39.23,-39.41,0,*5B
1506726301.07,11480,16.38,74344.8,-3.99,-39.23,-39.53,0,*58
1506726302.31,11481,16.38,74350.0,-3.99,-39.35,-39.59,0,*54
1506726303.57,11482,16.31,74344.5,-3.99,-39.41,-39.71,0,*5E
1506726304.85,11483,16.31,74346.8,-4.01,-39.29,-39.41,0,*54
1506726306.11,11484,16.38,74346.8,-4.01,-38.67,-38.97,0,*52
1506726307.37,11485,16.38,74346.8,-4.01,-38.67,-38.97,0,*53
1506726308.62,11486,16.38,74348.3,-4.01,-38.97,-39.23,0,*51
1506726309.91,11487,16.38,74348.3,-4.01,-39.23,-39.29,0,*54
1506726311.17,11488,16.38,74350.0,-4.01,-39.09,-39.41,0,*5D
1506726312.43,11489,16.31,74346.8,-4.01,-39.09,-39.29,0,*52
1506726313.7,11490,16.38,74344.3,-4.01,-39.09,-39.29,0,*5A
1506726314.98,11491,16.38,74346.8,-4.01,-39.23,-39.41,0,*5D
1506726316.21,11492,16.38,74348.0,-4.03,-39.23,-39.47,0,*5A
1506726317.47,11493,16.38,74348.5,-4.03,-39.23,-39.29,0,*53
1506726318.7,11494,16.38,74348.5,-4.03,-39.09,-39.41,0,*52
1506726319.94,11495,16.38,74346.0,-4.05,-39.35,-39.53,0,*59
1506726321.19,11496,16.38,74346.5,-4.03,-39.29,-39.41,0,*52
1506726322.45,11497,16.38,74346.5,-4.03,-39.23,-39.41,0,*59
1506726323.68,11498,16.38,74346.3,-4.03,-39.09,-39.41,0,*5E
1506726324.91,11499,16.31,74346.8,-4.05,-39.29,-39.35,0,*58
1506726326.15,11500,16.38,74348.8,-4.05,-39.35,-39.53,0,*54
1506726327.41,11501,16.38,74348.3,-4.03,-39.41,-39.59,0,*5A
1506726328.63,11502,16.38,74350.5,-4.05,-39.47,-39.65,0,*56
1506726329.89,11503,16.31,74344.3,-4.05,-39.29,-39.53,0,*5A
1506726331.12,11504,16.38,74350.3,-4.05,-39.35,-39.53,0,*50
1506726332.35,11505,16.38,74346.0,-4.09,-39.35,-39.53,0,*5D
1506726333.59,11506,16.38,74350.3,-4.09,-39.35,-39.59,0,*54
1506726334.85,11507,16.38,74350.5,-4.09,-39.23,-39.59,0,*52
1506726336.08,11508,16.31,74344.0,-4.09,-39.35,-39.41,0,*53
1506726337.33,11509,16.38,74346.0,-4.09,-39.23,-39.41,0,*55
1506726338.57,11510,16.38,74350.3,-4.09,-39.09,-39.23,0,*51
1506726339.77,11511,16.38,74346.8,-4.09,-39.09,-39.35,0,*57
1506726341.02,11512,16.38,74348.3,-4.09,-39.09,-39.15,0,*56
1506726342.3,11513,16.38,74348.0,-4.11,-39.15,-39.23,0,*56
1506726343.56,11514,16.38,74346.0,-4.09,-39.23,-39.53,0,*5A
1506726344.84,11515,16.38,74344.8,-4.11,-39.23,-39.41,0,*51
1506726346.07,11516,16.31,74344.0,-4.09,-39.35,-39.53,0,*5F
1506726347.32,11517,16.31,74344.3,-4.09,-39.23,-39.41,0,*5A
1506726348.57,11518,16.31,74344.5,-4.11,-39.35,-39.53,0,*58
1506726349.8,11519,16.38,74348.8,-4.09,-39.35,-39.53,0,*50
1506726351.09,11520,16.31,74344.3,-4.11,-39.15,-39.41,0,*52
1506726352.35,11521,16.38,74348.3,-4.11,-39.15,-39.35,0,*50
1506726353.6,11522,16.38,74348.0,-4.11,-39.23,-39.35,0,*56
1506726354.84,11523,16.31,74344.3,-4.13,-39.15,-39.35,0,*50
1506726356.12,11524,16.31,74346.8,-4.11,-39.23,-39.41,0,*53
1506726357.41,11525,16.31,74346.3,-4.11,-39.41,-39.71,0,*55
1506726358.68,11526,16.38,74348.0,-4.13,-39.41,-39.71,0,*54
1506726359.94,11527,16.38,74350.0,-4.13,-39.53,-39.71,0,*56
1506726361.21,11528,16.38,74344.8,-4.13,-39.41,-39.71,0,*5A
1506726362.47,11529,16.38,74350.0,-4.13,-39.41,-39.53,0,*5B
1506726363.77,11530,16.31,74346.0,-4.15,-39.59,-39.79,0,*54
1506726365.04,11531,16.31,74344.5,-4.13,-39.23,-39.59,0,*5C
1506726366.29,11532,16.38,74346.5,-4.15,-39.29,-39.47,0,*5C
1506726367.56,11533,16.38,74346.8,-4.13,-39.15,-39.23,0,*56
1506726368.86,11534,16.31,74344.5,-4.15,-39.41,-39.59,0,*5B
1506726370.09,11535,16.38,74346.3,-4.13,-39.35,-39.53,0,*55
1506726371.36,11536,16.31,74346.5,-4.15,-39.47,-39.59,0,*5F
1506726372.65,11537,16.31,74344.3,-4.15,-39.41,-39.59,0,*58
1506726373.91,11538,16.31,74344.0,-4.15,-39.41,-39.47,0,*58
1506726375.18,11539,16.31,74344.5,-4.19,-39.47,-39.71,0,*56
1506726376.41,11540,16.38,74346.5,-4.17,-39.29,-39.47,0,*5B
1506726377.64,11541,16.38,74350.5,-4.17,-39.41,-39.47,0,*54
1506726378.89,11542,16.38,74344.8,-4.19,-39.35,-39.65,0,*5A
1506726380.12,11543,16.38,74344.8,-4.17,-39.29,-39.47,0,*58
1506726381.36,11544,16.38,74348.0,-4.17,-39.47,-39.59,0,*58
1506726382.65,11545,16.31,74346.8,-4.19,-39.53,-39.71,0,*58
1506726383.9,11546,16.31,74344.3,-4.19,-39.29,-39.35,0,*56
1506726385.16,11547,16.38,74346.0,-4.19,-39.29,-39.35,0,*57
1506726386.44,11548,16.38,74346.5,-4.19,-39.29,-39.53,0,*58
1506726387.71,11549,16.38,74344.0,-4.17,-39.15,-39.41,0,*5B
1506726388.96,11550,16.38,74346.5,-4.19,-39.23,-39.47,0,*5E
1506726390.2,11551,16.31,74344.3,-4.21,-39.35,-39.53,0,*56
1506726391.43,11552,16.38,74350.8,-4.21,-39.35,-39.41,0,*56
1506726392.7,11553,16.31,74344.8,-4.21,-39.41,-39.59,0,*5D
1506726393.94,11554,16.31,74344.3,-4.21,-39.35,-39.53,0,*53
1506726395.2,11555,16.38,74346.5,-4.21,-39.29,-39.41,0,*5C
1506726396.46,11556,16.31,74344.5,-4.21,-39.29,-39.59,0,*56
1506726397.72,11557,16.38,74346.8,-4.21,-38.91,-39.29,0,*52
1506726398.97,11558,16.31,74346.3,-4.21,-39.09,-39.29,0,*5D
1506726400.2,11559,16.31,74346.3,-4.21,-39.35,-39.53,0,*5E
1506726401.41,11560,16.31,74346.5,-4.21,-38.97,-39.09,0,*52
1506726402.65,11561,16.31,74346.8,-4.21,-38.97,-39.15,0,*5E
1506726403.89,11562,16.38,74346.8,-4.21,-39.15,-39.35,0,*54
1506726405.15,11563,16.38,74348.0,-4.23,-39.15,-39.35,0,*57
1506726406.41,11564,16.38,74348.3,-4.23,-39.15,-39.35,0,*50
1506726407.66,11565,16.31,74344.8,-4.23,-39.29,-39.35,0,*5E
1506726408.9,11566,16.31,74344.5,-4.21,-39.35,-39.41,0,*51
1506726410.19,11567,16.31,74344.0,-4.23,-38.79,-38.91,0,*57
1506726411.46,11568,16.38,74348.8,-4.23,-38.79,-39.09,0,*58
1506726412.72,11569,16.31,74344.3,-4.23,-38.55,-38.91,0,*57
1506726413.98,11570,16.31,74344.8,-4.23,-38.79,-39.09,0,*51
1506726415.24,11571,16.31,74346.0,-4.23,-38.97,-39.15,0,*5D
1506726416.5,11572,16.38,74348.5,-4.23,-39.15,-39.35,0,*57
1506726417.73,11573,16.31,74344.0,-4.23,-39.09,-39.35,0,*5B
1506726418.98,11574,16.31,74344.3,-4.21,-38.61,-38.91,0,*5E
1506726420.24,11575,16.31,74346.3,-4.23,-39.09,-39.15,0,*5F
1506726421.5,11576,16.31,74344.8,-4.23,-38.97,-39.15,0,*5A
1506726422.76,11577,16.31,74346.8,-4.23,-38.61,-38.91,0,*5F
1506726423.98,11578,16.38,74350.0,-4.21,-38.73,-39.09,0,*51
1506726425.21,11579,16.31,74348.3,-4.23,-38.61,-38.73,0,*5D
1506726426.45,11580,16.31,74346.8,-4.23,-38.43,-38.61,0,*58
1506726427.68,11581,16.31,74346.0,-4.21,-38.73,-38.91,0,*57
1506726428.92,11582,16.31,74346.8,-4.21,-38.73,-38.91,0,*54
1506726430.14,11583,16.38,74350.8,-4.21,-38.43,-38.55,0,*5E
1506726431.35,11584,16.38,74350.5,-4.21,-38.55,-38.73,0,*5A
1506726432.62,11585,16.38,74346.8,-4.23,-38.61,-38.79,0,*54
1506726433.88,11586,16.31,74342.5,-4.23,-38.55,-38.79,0,*50
1506726435.09,11587,16.38,74348.3,-4.21,-38.55,-38.73,0,*59
1506726436.35,11588,16.31,74346.5,-4.19,-38.67,-38.85,0,*55
1506726437.57,11589,16.31,74348.0,-4.21,-38.35,-38.61,0,*52
1506726438.78,11590,16.38,74350.8,-4.21,-38.55,-38.73,0,*5F
1506726440.04,11591,16.31,74348.3,-4.19,-38.73,-38.91,0,*5D
1506726441.28,11592,16.31,74344.3,-4.17,-38.73,-38.91,0,*50
1506726442.54,11593,16.31,74340.8,-4.19,-38.73,-38.91,0,*5F
1506726443.82,11594,16.38,74348.8,-4.19,-38.67,-38.91,0,*5D
1506726445.08,11595,16.31,74346.8,-4.19,-38.67,-38.73,0,*50
1506726446.36,11596,16.31,74346.0,-4.19,-38.67,-38.91,0,*5F
1506726447.62,11597,16.31,74344.5,-4.23,-38.79,-38.97,0,*5E
1506726448.91,11598,16.38,74346.8,-4.19,-38.67,-38.91,0,*51
1506726450.18,11599,16.31,74348.3,-4.19,-38.49,-38.85,0,*59
1506726451.46,11600,16.31,74348.0,-4.19,-38.67,-39.03,0,*59
1506726452.72,11601,16.38,74348.5,-4.19,-38.67,-38.85,0,*57
1506726453.96,11602,16.38,74348.5,-4.19,-38.35,-38.55,0,*5E
1506726455.2,11603,16.31,74344.5,-4.19,-38.55,-38.73,0,*5D
1506726456.44,11604,16.38,74350.0,-4.17,-38.35,-38.49,0,*5B
1506726457.68,11605,16.31,74346.3,-4.17,-38.43,-38.79,0,*58
1506726458.92,11606,16.31,74344.5,-4.17,-38.61,-38.79,0,*5B
1506726460.15,11607,16.38,74350.0,-4.19,-38.55,-38.73,0,*59
1506726461.39,11608,16.31,74346.8,-4.19,-38.55,-38.85,0,*5F
1506726462.69,11609,16.31,74342.5,-4.19,-38.49,-38.67,0,*5F
1506726463.93,11610,16.38,74348.5,-4.17,-38.43,-38.67,0,*53
1506726465.2,11611,16.38,74346.8,-4.17,-38.49,-38.67,0,*58
1506726466.44,11612,16.31,74344.8,-4.17,-38.43,-38.79,0,*5E
1506726467.71,11613,16.31,74346.8,-4.17,-38.49,-38.67,0,*5A
1506726468.95,11614,16.31,74344.8,-4.17,-38.61,-38.79,0,*58
1506726470.22,11615,16.31,74346.5,-4.17,-38.49,-38.67,0,*5C
1506726471.47,11616,16.31,74344.5,-4.17,-38.49,-38.61,0,*59
1506726472.71,11617,16.31,74344.5,-4.17,-38.61,-38.79,0,*5B
1506726473.98,11618,16.38,74348.5,-4.17,-38.49,-38.79,0,*5E
1506726475.27,11619,16.38,74350.8,-4.15,-38.67,-39.03,0,*5D
1506726476.51,11620,16.38,74346.8,-4.17,-38.49,-38.85,0,*56
1506726477.76,11621,16.31,74344.0,-4.15,-38.61,-38.85,0,*5F
1506726479.0,11622,16.31,74346.0,-4.15,-38.61,-38.85,0,*5C
1506726480.27,11623,16.31,74344.8,-4.15,-38.49,-38.85,0,*57
1506726481.51,11624,16.31,74346.5,-4.15,-38.61,-38.85,0,*5A
1506726482.75,11625,16.31,74346.3,-4.15,-38.85,-38.97,0,*52
1506726484.04,11626,16.31,74346.8,-4.15,-38.79,-39.15,0,*59
1506726485.31,11627,16.31,74346.3,-4.15,-38.67,-38.85,0,*5F
1506726486.58,11628,16.31,74346.0,-4.15,-38.49,-38.85,0,*5C
1506726487.87,11629,16.31,74348.3,-4.15,-38.49,-38.79,0,*5E
1506726489.11,11630,16.31,74346.3,-4.13,-38.43,-38.79,0,*5A
1506726490.36,11631,16.38,74346.0,-4.15,-38.61,-38.85,0,*5E
1506726491.62,11632,16.31,74346.3,-4.15,-38.61,-38.79,0,*5E
1506726492.86,11633,16.31,74344.0,-4.13,-38.43,-38.79,0,*59
1506726494.13,11634,16.31,74346.0,-4.15,-38.29,-38.61,0,*5D
1506726495.4,11635,16.31,74344.3,-4.15,-38.29,-38.43,0,*5C
1506726496.67,11636,16.31,74344.8,-4.15,-38.29,-38.61,0,*5F
1506726497.96,11637,16.31,74346.0,-4.15,-38.49,-38.67,0,*5E
1506726499.26,11638,16.31,74346.8,-4.15,-38.49,-38.67,0,*51